Flag for Canada Weather past 2 weeks in Québec, Quebec, Canada

Now
45 °F

Overcast.


Feels Like: 38 °F
Forecast: 37 / 50 °F
Wind: 14 mph from Northeast

Location: Quebec Weather Station

Current Time: Oct 22, 2014 at 5:16:00 AM

Latest Report: Oct 22, 2014 at 4:00 AM


Visibility: 15 mi

Pressure: 30.29 "Hg

Humidity: 57%

Dew point: 30 °F

Location of QuébecLocation

Historic Weather in Québec — Graph

°F

Québec temperature yesterday

Maximum temperature yesterday: 46 °F (at 1:00 PM)
Minimum temperature yesterday: 34 °F (at 1:00 AM)
Average temperature yesterday: 41 °F

Past Weeks' High & Low Weather Summary

 TemperatureHumidityPressure
High68 °F (Oct 15, 10:00 AM)100% (Oct 7, 9:00 PM)30.29 "Hg (Oct 7, 9:00 PM)
Low30 °F (Oct 13, 7:00 AM)45% (Oct 13, 4:00 PM)29.43 "Hg (Oct 18, 5:00 PM)
Average49 °F81%29.89 "Hg
* Reported Oct 7 4:00 AM — Oct 22 4:00 AM, Québec, Weather by CustomWeather, © 2014

Note: Actual official high and low records may vary slightly from our data, if they occured in-between our weather recording intervals... More about our weather records

Advertising

Québec weather history for previous 24 hours

 ConditionsComfort  
Time TempWeatherWind HumidityBarometerVisibility
4:00 AM
Oct 22
45 °FOvercast.14 mph57%30.29 "Hg15 mi
3:00 AM45 °FOvercast.16 mph57%30.29 "Hg15 mi
2:00 AM45 °FOvercast.17 mph61%30.29 "Hg15 mi
1:00 AM45 °FOvercast.18 mph57%30.29 "Hg15 mi
12:00 AM45 °FOvercast.15 mph57%30.29 "Hg15 mi
11:00 PM
Oct 21
43 °FPassing clouds.14 mph61%30.27 "Hg15 mi
10:00 PM43 °FPassing clouds.14 mph61%30.24 "Hg15 mi
9:00 PM45 °FPassing clouds.13 mph53%30.22 "Hg15 mi
8:00 PM45 °FPassing clouds.13 mph53%30.20 "Hg15 mi
7:00 PM45 °FPassing clouds.10 mph53%30.19 "Hg15 mi
6:00 PM45 °FBroken clouds.9 mph53%30.18 "Hg30 mi
5:00 PM46 °FPartly sunny.10 mph53%30.16 "Hg30 mi
4:00 PM46 °FPartly sunny.10 mph57%30.15 "Hg30 mi
3:00 PM46 °FPartly sunny.12 mph53%30.13 "Hg30 mi
2:00 PM45 °FPartly sunny.10 mph66%30.12 "Hg30 mi
1:00 PM46 °FPartly sunny.10 mph57%30.12 "Hg30 mi
12:00 PM45 °FPartly sunny.10 mph66%30.11 "Hg30 mi
11:00 AM45 °FScattered clouds.12 mph66%30.11 "Hg30 mi
10:00 AM43 °FBroken clouds.12 mph66%30.11 "Hg30 mi
9:00 AM36 °FBroken clouds.5 mph81%30.09 "Hg30 mi
8:00 AM36 °FPassing clouds.6 mph81%30.09 "Hg30 mi
7:00 AM36 °FPassing clouds.6 mph81%30.05 "Hg15 mi
6:00 AM34 °FPassing clouds.5 mph87%30.04 "Hg15 mi
5:00 AM34 °FPassing clouds.3 mph81%30.03 "Hg15 mi
Weather by CustomWeather, © 2014

See weather overviewHow to use our weather pages